Location: Eindhoven
(51.4416°N, 5.4697°E)
Time: 07:09:05
(UTC+01:00)

Tiros 1 - Pass Details

Date: 18 November 2019
Orbit: 630 x 664 km, 48.4° (Epoch: 14 December)

Event Time Altitude Azimuth Distance (km) Brightness Sun altitude
Rises 17:33:22 0° 258° (WSW) 2,916 12.7 -7.5°
Reaches altitude 10° 17:35:42 10° 255° (WSW) 2,011 11.4 -7.9°
Maximum altitude 17:40:15 60° 176° (S) 729 7.5 -8.5°
Drops below altitude 10° 17:44:50 10° 97° (E) 2,026 9.2 -9.2°
Enters shadow 17:45:03 - 97° (E) 2,104 9.2 -9.2°
